Home   Weather   Mayen   Past weeks

Flag for Germany Past Weather in Mayen, Rhineland-Palatinate, Germany — Yesterday and Last 2 Weeks

Now
36 °F

Partly cloudy.


Feels Like: 29 °F
Forecast: 30 / 43 °F
Wind: 9 mph from West

Location: Buechel

Current Time: Dec 7, 2016 at 9:21:42 pm

Latest Report: Dec 7, 2016 at 8:20 pm


Visibility: N/A

Pressure: 30.48 "Hg

Humidity: 81%

Dew Point: 30 °F

Location of MayenLocation

Past Weather in Mayen — Graph

°F

Mayen Temperature Yesterday

Maximum temperature yesterday: 43 °F (at 1:20 pm)
Minimum temperature yesterday: 28 °F (at 8:20 am)
Average temperature yesterday: 33 °F

High & Low Weather Summary for the Past Weeks

 TemperatureHumidityPressure
High57 °F (Nov 23, 2:20 pm)100% (Nov 22, 11:20 pm)30.48 "Hg (Nov 22, 11:20 pm)
Low21 °F (Nov 29, 8:20 am)56% (Nov 30, 12:20 pm)29.92 "Hg (Nov 22, 7:20 pm)
Average35 °F85%30.23 "Hg
* Reported Nov 22 7:20 pm — Dec 7 7:20 pm, Mayen, Weather by CustomWeather, © 2016

Note: Actual official high and low records may vary slightly from our data, if they occured in-between our weather recording intervals... More about our weather records

Advertising

Mayen Weather History for the Previous 24 Hours

Scroll right to see more
 ConditionsComfort  
Time TempWeatherWind HumidityBarometerVisibility
7:20 pm
Wed, Dec 7
34 °FPassing clouds.10 mph87%30.48 "HgN/A
6:20 pm37 °FPartly cloudy.8 mph75%30.48 "HgN/A
5:20 pm36 °FPartly cloudy.8 mph81%30.45 "HgN/A
4:20 pm36 °FBroken clouds.5 mph81%30.45 "HgN/A
3:20 pm37 °FBroken clouds.7 mph75%30.45 "HgN/A
2:20 pm37 °FPartly sunny.7 mph81%30.45 "HgN/A
1:20 pm36 °FBroken clouds.5 mph87%30.45 "HgN/A
12:20 pm36 °FBroken clouds.6 mph87%30.48 "HgN/A
11:20 am34 °FFog.5 mph93%30.48 "HgN/A
10:20 am34 °FFog.5 mph93%30.48 "HgN/A
9:20 am30 °FFog.6 mph93%30.48 "HgN/A
8:20 am28 °FFog.6 mph93%30.45 "HgN/A
7:20 am27 °FPassing clouds.5 mph100%30.45 "HgN/A
6:20 am28 °FPassing clouds.5 mph100%30.45 "HgN/A
5:20 am28 °FPassing clouds.2 mph100%30.48 "HgN/A
4:20 am28 °FChilly.5 mph93%30.48 "Hg3 mi
3:20 am28 °FChilly.3 mph100%30.45 "Hg2 mi
2:20 am30 °FChilly.2 mph100%30.45 "HgN/A
1:20 am30 °FChilly.6 mph93%30.45 "Hg3 mi
12:20 am28 °FChilly.2 mph100%30.45 "Hg1 mi
11:20 pm
Tue, Dec 6
32 °FChilly.3 mph93%30.45 "HgN/A
10:20 pm32 °FChilly.2 mph93%30.45 "Hg4 mi
10:00 pm32 °FFog.5 mph93%30.45 "Hg4 mi
9:20 pm32 °FPassing clouds.2 mph93%30.45 "Hg6 mi
Weather by CustomWeather, © 2016

See weather overviewHow to use our weather pages